Volver al catálogo

STARLINK-34946

ActivoComunicacionesVLEO
NORAD 65367·PAYLOAD·🇺🇸 United States

Lanzado Aug 28, 2025 desde Cape Canaveral Space Force Station

Loading…

Próximos Pases (próximas 24 horas)

TLE

ActualizadoSource: CelesTrak SupGP

Época: Sep 15, 2026, 02:46 UTC

1 65367C 25190S   26258.11576389  .00060081  00000+0  17749-2 0  2589
2 65367  53.1596   4.9541 0001097  79.5626 311.1209 15.34364340    14

Sigue STARLINK-34946 en tiempo real con AllMySat

Download on the App Store